Regional Weather Roundup
Issued by NWS

Home | Current Version | Previous Version | Graphics & Text | Print | Product List | Glossary On
Versions: 1 2 3 4 5 6 7 8 9 10 11 12 13 14 15 16 17 18 19 20 21 22 23 24 25 26 27 28 29 30 31 32 33 34 35 36 37 38 39 40 41 42 43 44 45 46 47 48 49 50
000
ASUS45 KBOU 261407
RWRCO

WEATHER ROUNDUP FOR COLORADO
NATIONAL WEATHER SERVICE DENVER/BOULDER CO
800 AM MDT SUN APR 26 2015

NOTE: "FAIR" INDICATES FEW OR NO CLOUDS BELOW 12000 FEET WITH NO
SIGNIFICANT WEATHER AND/OR OBSTRUCTIONS TO VISIBILITY.

COZ001>005-013-030-031-261500-
...NORTHWEST COLORADO...

CITY           SKY/WX    TMP DP  RH WIND       PRES   REMARKS
CRAIG          MOSUNNY   40  35  83 CALM      29.78R
HAYDEN         MOSUNNY   39  34  81 CALM      29.77R
MEEKER         CLOUDY    40  35  83 CALM      29.77R
MOUNT WERNER   NOT AVBL
STEAMBOAT SPGS MOSUNNY   39  36  88 CALM      29.78R
WALDEN         CLOUDY    34  32  93 CALM      29.83S VSB 1/4
$$

COZ006>008-011-261500-
...WEST CENTRAL VALLEYS...

CITY           SKY/WX    TMP DP  RH WIND       PRES   REMARKS
GRAND JUNCTION RAIN      42  42 100 N6        29.76R FOG
MONTROSE       CLOUDY    42  39  89 N3        29.77R
EAGLE          CLOUDY    39  39 100 CALM      29.82R
RIFLE          CLOUDY    40  37  89 NE3       29.75R
DELTA          CLOUDY    48  42  81 MISG      29.76R
NUCLA          CLOUDY    37  36  93 E7        29.82R
$$

COZ017>023-064>068-261500-
...SOUTHWEST COLORADO...

CITY           SKY/WX    TMP DP  RH WIND       PRES   REMARKS
DURANGO        LGT RAIN  38  37  97 S3        29.78R FOG
CORTEZ         CLOUDY    39  37  92 E3        29.79R
PAGOSA SPRINGS LGT SNOW  35  35 100 CALM      29.81S
TELLURIDE      CLOUDY    33  33 100 CALM      29.82R FOG
WOLF CREEK PAS NOT AVBL
$$

COZ009-010-012-014-032>034-037-058>063-261500-
...CENTRAL COLORADO...

CITY           SKY/WX    TMP DP  RH WIND       PRES   REMARKS
ASPEN          CLOUDY    36  35  96 N3        29.78R FOG
BUENA VISTA    CLOUDY    37  33  87 CALM      29.83R
COPPER MTN     CLOUDY    32  23  69 CALM      29.91R
BERTHOUD PASS  SNOW      23  16  74 E15       29.94R VSB<1/4 WCI  10
COTTONWOOD PAS LGT SNOW  36  32  87 E5        29.87R
GUNNISON       CLOUDY    37  28  70 N9        29.80R
KREMMLING      CLOUDY    37  34  87 CALM      29.84R
LEADVILLE      CLOUDY    30  28  92 CALM      29.84R
MONARCH PASS   FOG       25  23  93 MISG      29.99S VSB<1/4
SALIDA         CLOUDY    43  35  73 CALM      29.89R
SUNLIGHT       CLOUDY    32  30  93 NE6       29.87R WCI  26
WILKERSON PASS SNOW      30  28  93 E6        29.93S VSB<1/4 WCI  24
$$

COZ069>075-261500-
...SAN LUIS VALLEY/SANGRE DE CRISTO MOUNTAINS...

CITY           SKY/WX    TMP DP  RH WIND       PRES   REMARKS
ALAMOSA        CLOUDY    41  31  67 SE5       29.79S
LA VETA PASS   LGT SNOW  34  28  80 CALM      29.88R
SAGUACHE       CLOUDY    37  30  75 CALM      29.82R
$$

COZ035-036-038>040-261500-
...NORTHERN COLORADO FRONT RANGE...

CITY           SKY/WX    TMP DP  RH WIND       PRES   REMARKS
DENVER INTL AP LGT RAIN  42  42 100 E23       29.81F
DMNS CITY PARK   N/A     43  40  88 E5        29.84S
AURORA         LGT RAIN  41  41 100 E16       29.84R FOG
FRONT RANGE AP RAIN      45  43  93 E16G25    29.85R
ERIE MUNI ARPT DRIZZLE   44  41  88 NE3       29.86R
BOULDER MUN AP RAIN      43  43 100 CALM      29.86R
CENTENNIAL     RAIN      40  39  97 S3        29.85R FOG
BROOMFIELD     NOT AVBL
FORT COLLINS   CLOUDY    45  41  87 SE9       29.87R
LONGMONT       HVY RAIN  45  43  92 SW5       29.88R
$$

COZ041-046-047-076>085-087-088-261500-
...PIKES PEAK/PALMER DIVIDE AND SOUTHERN FOOTHILLS...

CITY           SKY/WX    TMP DP  RH WIND       PRES   REMARKS
COLO. SPRINGS  CLOUDY    47  43  86 E20       29.81S
A. F. ACADEMY  CLOUDY    46  44  95 SE13      29.81S
ELLICOTT       CLOUDY   N/A N/A N/A E16       29.81S FOG
FALCON         CLOUDY    43  43 100 E13       29.84S FOG
FORT CARSON    CLOUDY    47  45  92 E14       29.80R
LIMON          CLOUDY    43  42  97 E18       29.84R
MONUMENT HILL  RAIN      34  34 100 NE7       29.84S WCI  28
TRINIDAD       CLOUDY    44  29  55 W10       29.77R
$$

COZ042>045-048>051-090-091-261500-
...NORTHEAST COLORADO...

CITY           SKY/WX    TMP DP  RH WIND       PRES   REMARKS
GREELEY ARPT   CLOUDY    43  39  87 SE8       29.85R
AKRON          LGT RAIN  41  41 100 SE20      29.86R VSB 1/4
BURLINGTON     FOG       43  42  97 E16       29.88R VSB 1/4
WRAY           CLOUDY   N/A N/A N/A E13G21    29.90R FOG
STERLING       CLOUDY    45  45 100 E8        29.87R FOG
HOLYOKE        LGT RAIN  45  41  87 E16       29.90S VSB 3/4
FORT MORGAN    RAIN      43  42  95 CALM      29.89R
$$

COZ086-089-092>099-261500-
...SOUTHEAST COLORADO...

CITY           SKY/WX    TMP DP  RH WIND       PRES   REMARKS
PUEBLO         CLOUDY    51  46  83 E21       29.78R
LA JUNTA       CLOUDY    48  45  89 E23       29.78R
LAMAR          CLOUDY    47  46  97 E21G26    29.79R FOG
SPRINGFIELD      N/A     50  47  89 E17       29.78R
$$



USA.gov is the U.S. government's official web portal to all federal, state and local government web resources and services.